Powrót do katalogu

TIANLIAN 2-01

AktywnyŁącznośćGEO
NORAD 44076·PAYLOAD·🇨🇳 China

Wystrzelony Mar 31, 2019 z Xichang Satellite Launch Center

Loading…

TLE

ŚwieżeSource: Space-Track

Epoka: Sep 14, 2026, 22:43 UTC

1 44076U 19017A   26257.94678752 -.00000114  00000-0  00000-0 0  9996
2 44076   0.7655  82.5225 0003082 122.6225 206.6319  1.00271970 27545

Śledź TIANLIAN 2-01 w czasie rzeczywistym z AllMySat

Download on the App Store